Date String (YYYY-MM-DD hh:mm:ss) UTC,Instrument flags,Ambient pressure (hPa),Sample flow (lpm),Bypass flow (lpm),Sample temperature (°C),Ambient temperature (°C),ASC tube jacket temperature (°C),LED temperature (°C),Box temperature (°C),Sample RH (%),Span deviation,Mass concentration (μg/m³),Mass concentration (μg/m³),Mass concentration (μg/m³)
DateTimeUTC,F1_M11,P_M11,Q1_M11,Q2_M11,T1_M11,T2_M11,T3_M11,T4_M11,T5_M11,U1_M11,ZSPAN_M11,X0_M11,X2_M11,X1_M11
2021-08-24 03:00:00,,0825.5,5.01,0.00,29.4,27.6,00.0,38.3,31.1,23.0,0000.0,0011.28,0005.06,0004.61
2021-08-24 03:01:00,,0825.5,4.99,0.00,29.2,25.7,00.0,38.2,30.5,23.0,0000.0,0011.68,0005.10,0004.64
2021-08-24 03:02:00,,0825.5,5.00,0.00,29.0,25.1,00.0,38.2,30.3,23.2,0000.0,0011.75,0005.18,0004.66
2021-08-24 03:03:00,,0825.5,5.01,0.00,29.0,25.5,00.0,38.2,30.4,22.0,0000.0,0012.06,0005.24,0004.68
2021-08-24 03:04:00,,0825.5,5.00,0.00,28.9,26.0,00.0,38.1,30.5,21.3,0000.0,0012.58,0005.29,0004.70
2021-08-24 03:05:00,,0825.6,5.00,0.00,28.9,26.5,00.0,38.1,30.6,18.1,0000.0,0012.45,0005.27,0004.67
2021-08-24 03:06:00,,0825.6,5.01,0.00,28.9,26.9,00.0,38.1,30.7,21.7,0000.0,0011.93,0005.22,0004.60
2021-08-24 03:07:00,,0825.6,4.99,0.00,29.0,27.3,00.0,38.1,30.8,22.7,0000.0,0011.89,0005.21,0004.58
2021-08-24 03:08:00,,0825.6,5.01,0.00,29.0,27.6,00.0,38.1,30.9,23.4,0000.0,0011.93,0005.19,0004.55
2021-08-24 03:09:00,,0825.7,4.99,0.00,29.0,27.8,00.0,38.1,30.9,23.1,0000.0,0011.96,0005.17,0004.53
2021-08-24 03:10:00,,0825.6,4.98,0.00,29.1,28.0,00.0,38.1,31.0,21.6,0000.0,0011.53,0005.13,0004.50
2021-08-24 03:11:00,,0825.6,5.01,0.00,29.1,28.2,00.0,38.1,31.1,20.8,0000.0,0011.54,0005.08,0004.46
2021-08-24 03:12:00,,0825.6,4.99,0.00,29.2,28.3,00.0,38.2,31.1,20.3,0000.0,0010.95,0005.00,0004.42
2021-08-24 03:13:00,,0825.7,4.99,0.00,29.2,28.3,00.0,38.2,31.2,21.2,0000.0,0010.44,0004.92,0004.39
2021-08-24 03:14:00,,0825.7,5.00,0.00,29.3,28.4,00.0,38.2,31.2,21.0,0000.0,0010.06,0004.83,0004.33
2021-08-24 03:15:00,,0825.7,5.00,0.00,29.3,28.5,00.0,38.2,31.3,19.8,0000.0,0009.38,0004.74,0004.27
2021-08-24 03:16:00,,0825.7,5.00,0.00,29.4,28.6,00.0,38.3,31.3,19.2,0000.0,0009.00,0004.66,0004.24
2021-08-24 03:17:00,,0825.7,5.01,0.00,29.4,27.8,00.0,38.3,31.1,19.9,0000.0,0008.64,0004.62,0004.23
2021-08-24 03:18:00,,0825.7,5.01,0.00,29.3,26.3,00.0,38.3,30.7,19.5,0000.0,0008.90,0004.53,0004.16
2021-08-24 03:19:00,,0825.7,5.00,0.00,29.2,26.2,00.0,38.3,30.7,18.2,0000.0,0008.76,0004.42,0004.09
2021-08-24 03:20:00,,0825.7,4.99,0.00,29.1,26.5,00.0,38.3,30.7,17.9,0000.0,0008.49,0004.30,0004.01
2021-08-24 03:21:00,,0825.7,5.02,0.00,29.1,26.9,00.0,38.2,30.8,16.4,0000.0,0008.12,0004.20,0003.91
2021-08-24 03:22:00,,0825.7,4.99,0.00,29.1,27.3,00.0,38.2,30.9,16.4,0000.0,0007.71,0004.11,0003.83
2021-08-24 03:23:00,,0825.7,5.00,0.00,29.2,27.6,00.0,38.2,31.0,17.4,0000.0,0007.97,0004.04,0003.75
2021-08-24 03:24:00,,0825.7,5.01,0.00,29.2,27.8,00.0,38.2,31.0,17.5,0000.0,0007.63,0003.94,0003.65
2021-08-24 03:25:00,,0825.7,5.00,0.00,29.2,28.0,00.0,38.2,31.1,16.6,0000.0,0007.70,0003.88,0003.57
2021-08-24 03:26:00,,0825.7,4.99,0.00,29.3,28.2,00.0,38.3,31.2,14.0,0000.0,0007.61,0003.80,0003.49
2021-08-24 03:27:00,,0825.7,5.01,0.00,29.3,28.3,00.0,38.3,31.2,13.5,0000.0,0007.54,0003.69,0003.39
2021-08-24 03:28:00,,0825.8,5.00,0.00,29.4,28.4,00.0,38.3,31.3,15.2,0000.0,0007.54,0003.58,0003.29
2021-08-24 03:29:00,,0826.1,5.00,0.00,29.4,28.5,00.0,38.3,31.3,16.0,0000.0,0007.04,0003.50,0003.22
2021-08-24 03:30:00,,0826.0,4.99,0.00,29.4,28.6,00.0,38.4,31.4,15.8,0000.0,0006.67,0003.45,0003.15
2021-08-24 03:31:00,,0825.9,5.01,0.00,29.4,27.6,00.0,38.4,31.0,15.1,0000.0,0006.59,0003.41,0003.10
2021-08-24 03:32:00,,0826.0,4.99,0.00,29.2,25.6,00.0,38.3,30.4,15.5,0000.0,0006.57,0003.37,0003.03
2021-08-24 03:33:00,,0826.0,5.00,0.00,29.1,25.2,00.0,38.3,30.3,16.3,0000.0,0006.58,0003.35,0003.01
2021-08-24 03:34:00,,0826.0,5.01,0.00,29.0,25.6,00.0,38.3,30.4,16.7,0000.0,0005.74,0003.33,0002.99
2021-08-24 03:35:00,,0826.1,5.00,0.00,29.0,26.1,00.0,38.2,30.5,16.3,0000.0,0005.52,0003.33,0002.96
2021-08-24 03:36:00,,0825.9,5.00,0.00,29.0,26.6,00.0,38.2,30.7,15.9,0000.0,0005.37,0003.28,0002.90
2021-08-24 03:37:00,,0825.8,4.99,0.00,29.0,27.0,00.0,38.2,30.7,16.2,0000.0,0005.40,0003.27,0002.89
2021-08-24 03:38:00,,0825.8,4.99,0.00,29.0,27.3,00.0,38.2,30.8,15.1,0001.0,0006.35,0003.28,0002.91
2021-08-24 03:39:00,,0825.8,5.00,0.00,29.0,27.6,00.0,38.2,30.9,13.4,0001.3,0006.51,0003.28,0002.91
2021-08-24 03:40:00,,0825.8,5.01,0.00,29.1,27.8,00.0,38.2,31.0,13.1,0000.0,0006.02,0003.24,0002.84
2021-08-24 03:41:00,,0825.9,5.01,0.00,29.1,27.9,00.0,38.2,31.0,12.6,0000.0,0006.04,0003.20,0002.76
2021-08-24 03:42:00,,0825.9,5.00,0.00,29.2,28.1,00.0,38.2,31.1,12.6,0000.0,0006.02,0003.16,0002.69
2021-08-24 03:43:00,,0825.9,4.99,0.00,29.2,28.2,00.0,38.2,31.1,14.2,0000.0,0006.07,0003.16,0002.65
2021-08-24 03:44:00,,0826.0,4.99,0.00,29.2,28.3,00.0,38.2,31.2,14.7,0000.0,0006.35,0003.12,0002.59
2021-08-24 03:45:00,,0825.9,4.99,0.00,29.3,28.5,00.0,38.3,31.2,11.7,0000.0,0006.34,0003.01,0002.51
2021-08-24 03:46:00,,0825.9,5.00,0.00,29.3,28.5,00.0,38.3,31.3,13.0,0000.0,0006.31,0002.92,0002.43
2021-08-24 03:47:00,,0825.9,5.01,0.00,29.4,28.6,00.0,38.3,31.3,13.7,0000.0,0006.29,0002.88,0002.40
2021-08-24 03:48:00,,0825.9,5.00,0.00,29.4,28.7,00.0,38.3,31.4,12.9,0000.0,0006.13,0002.83,0002.36
2021-08-24 03:49:00,,0825.9,5.01,0.00,29.5,28.7,00.0,38.4,31.4,12.8,0000.0,0005.34,0002.77,0002.32
2021-08-24 03:50:00,,0825.9,5.00,0.00,29.5,28.0,00.0,38.4,31.2,11.3,0000.0,0004.91,0002.67,0002.27
2021-08-24 03:51:00,,0825.8,5.00,0.00,29.4,26.4,00.0,38.4,30.8,10.5,0000.0,0004.89,0002.64,0002.23
2021-08-24 03:52:00,,0825.8,5.01,0.00,29.3,26.3,00.0,38.4,30.8,10.3,0000.0,0004.62,0002.55,0002.18
2021-08-24 03:53:00,,0825.7,5.00,0.00,29.2,26.7,00.0,38.3,30.8,10.4,0000.0,0004.59,0002.47,0002.15
2021-08-24 03:54:00,,0825.8,5.01,0.00,29.2,27.0,00.0,38.3,30.9,10.7,0000.0,0005.29,0002.41,0002.11
2021-08-24 03:55:00,,0825.9,4.98,0.00,29.2,27.4,00.0,38.3,31.0,12.7,0000.0,0005.32,0002.38,0002.07
2021-08-24 03:56:00,,0825.9,5.02,0.00,29.2,27.7,00.0,38.3,31.0,14.1,0000.0,0005.16,0002.41,0002.10
2021-08-24 03:57:00,,0825.9,4.99,0.00,29.3,27.9,00.0,38.3,31.1,14.6,0000.0,0005.55,0002.43,0002.13
2021-08-24 03:58:00,,0826.0,5.01,0.00,29.3,28.1,00.0,38.3,31.2,13.7,0000.0,0005.45,0002.41,0002.14
2021-08-24 03:59:00,,0825.9,4.99,0.00,29.3,28.3,00.0,38.3,31.2,12.3,0000.0,0006.40,0002.40,0002.11
